Aérodrome :
LOGIN :

S'inscrire | Disclaimer

   EN    FR    IT 

 










Légende :    VFR   VFR Marginal   IFR   IFR Intensif   IFR Très Intensif
Visi : 
Plafond : 
>= 8 km
>= 3000ft
5 à 8 km
1000 à 3000 ft
1500m à 5 km
500 à 1000 ft
800 à 1500m
200 à 500 ft
< 800m
< 200 ft
Symboles :   Orages  Brouillard  Fortes neiges  Fortes précipitations  Vent > 20 kt
SIGMETs :   Divers  Orages  Givrage  Turbulence  Onde Orograph.  Cendres Volcan.







- Altitude de l'aérodrome : 538 ft
- Code IATA : TNF
- Voir les cartes d'approche


LFPN - Toussus Le Noble

DERNIER METAR :
  • 271300Z AUTO 33011KT 9999 BKN041 BKN050 19/09 Q1012 NOSIG

METARs EXPIRÉS :
  • 271230Z AUTO 33008KT 280V010 9999 BKN039 19/09 Q1012 NOSIG
  • 271200Z AUTO 32010KT 290V360 9999 BKN037 19/09 Q1012 NOSIG
  • 271130Z AUTO 29010KT 250V330 9999 BKN036 19/09 Q1013 NOSIG
  • 271100Z AUTO 29011KT 260V330 9999 BKN033 18/09 Q1013 NOSIG

TAF TAF LFPN
Valide du 27 à 12h jusqu'au 27 à 21h UTC


271100Z 2712/2721 30010KT 9999 BKN035
BECMG 2712/2714 CAVOK
ATIS : +33 1 39 56 54 70
Pas de NOTAMs connus pour ce terrain.



MET'MAP, la Météo Aéronautique d'un coup d'oeil ! - Copyright ORBIFLY Décembre 2007 - Disclaimer

ORBIFLY MET'MAP TEAM :

Programmation & Développement : Alexandra Zaïnal
Conception & Développement : Baudouin d'Aumeries
Co-Programmation & Développement : Marc-Olivier Méhu
Soutien technique & logistique : Manuel Goepfert

Contact : metmap@orbifly.com




SOURCES & CREDITS :

   NOAA